Weather History for North Adams, MA

Change the Weather History Date:

Monday, January 14, 2013

  Actual Average Record
Temperature  
Mean Temperature 40 °F -  
Max Temperature 48 °F 26 °F 64 °F (2005)
Min Temperature 33 °F 11 °F -11 °F (2004)
Degree Days  
Heating Degree Days 24    
Moisture  
Dew Point 32 °F    
Average Humidity 71    
Maximum Humidity 93    
Minimum Humidity 49    
Precipitation  
Precipitation 0.05 in - - ()
Sea Level Pressure  
Sea Level Pressure 30.10 in    
Wind  
Wind Speed 9 mph (West)    
Max Wind Speed 20 mph    
Max Gust Speed 26 mph    
Visibility 10 miles    
Events Rain    
Averages and records for this station are not official NWS values.
T = Trace of Precipitation, MM = Missing Value Source: NWS Daily Summary

Daily Weather History Graph

Daily Weather History Graph

Search for Another Location

Airport:

Trip Planner

Search our weather history database for the weather conditions in past years. The results will help you decide how hot, cold, wet, or windy it might be!

Date:

Astronomy

Jan. 14, 2013 Rise Set
Actual Time 7:20 AM EST 4:43 PM EST
Civil Twilight 6:49 AM EST 5:14 PM EST
Nautical Twilight 6:14 AM EST 5:49 PM EST
Astronomical Twilight 5:40 AM EST 6:23 PM EST
Moon 8:47 AM EST (1/14) 8:32 PM EST (1/14)
Length of Visible Light 10h 25m
Length of Day
9h 22m
Waxing Crescent, 11% of the Moon is Illuminated
Jan 14
Waxing Crescent
Jan 18
First Quarter
Jan 26
Full
Feb 3
Last Quarter
Feb 10
New

Hourly Weather History & Observations

Time (EST) Temp. Windchill Dew Point Humidity Pressure Visibility Wind Dir Wind Speed Gust Speed Precip Events Conditions
1:52 AM 44.1 °F 40.1 °F 42.1 °F 93% 29.96 in 7.0 mi ESE 6.9 mph - N/A   Overcast
2:52 AM 43.0 °F 38.2 °F 41.0 °F 93% 29.96 in 9.0 mi ESE 8.1 mph - N/A   Overcast
4:05 AM 44.6 °F 39.2 °F 42.8 °F 93% 29.94 in 8.0 mi ESE 10.4 mph - 0.00 in Rain Light Rain
4:52 AM 44.1 °F 40.8 °F 41.0 °F 89% 29.93 in 8.0 mi ENE 5.8 mph - 0.04 in Rain Light Rain
5:12 AM 44.6 °F 40.2 °F 42.8 °F 93% 29.87 in 10.0 mi East 8.1 mph 20.7 mph 0.01 in Rain Light Rain
5:52 AM 44.1 °F 38.6 °F 42.1 °F 93% 29.91 in 10.0 mi ESE 10.4 mph - 0.01 in   Partly Cloudy
6:52 AM 44.1 °F - 41.0 °F 89% 29.95 in 10.0 mi Calm Calm - N/A   Scattered Clouds
7:26 AM 42.8 °F - 39.2 °F 87% 29.96 in 9.0 mi Calm Calm - N/A   Overcast
7:52 AM 43.0 °F 39.5 °F 41.0 °F 93% 30.02 in 9.0 mi WSW 5.8 mph - N/A   Overcast
8:52 AM 48.9 °F - 41.0 °F 74% 30.05 in 10.0 mi Calm Calm - N/A   Overcast
9:52 AM 48.0 °F - 37.9 °F 68% 30.08 in 10.0 mi West 8.1 mph 19.6 mph N/A   Overcast
10:52 AM 44.1 °F 37.7 °F 35.1 °F 71% 30.12 in 10.0 mi West 12.7 mph 20.7 mph N/A   Overcast
11:52 AM 44.1 °F 36.2 °F 34.0 °F 68% 30.12 in 10.0 mi West 18.4 mph 23.0 mph N/A   Overcast
12:15 PM 44.6 °F 36.9 °F 32.0 °F 61% 30.11 in 10.0 mi West 18.4 mph 24.2 mph N/A   Mostly Cloudy
12:52 PM 45.0 °F 38.2 °F 30.0 °F 56% 30.12 in 10.0 mi West 15.0 mph 25.3 mph N/A   Clear
1:52 PM 45.0 °F 37.1 °F 27.0 °F 49% 30.14 in 10.0 mi West 19.6 mph - N/A   Clear
3:52 PM 41.0 °F 32.8 °F 24.1 °F 51% 30.18 in 10.0 mi West 16.1 mph 26.5 mph N/A   Clear
4:52 PM 37.9 °F 30.9 °F 21.9 °F 53% 30.20 in 10.0 mi West 10.4 mph - N/A   Clear
5:52 PM 34.0 °F 26.0 °F 21.9 °F 61% 30.21 in 10.0 mi West 10.4 mph - N/A   Clear
6:52 PM 35.1 °F 26.9 °F 21.0 °F 57% 30.26 in 10.0 mi West 11.5 mph - N/A   Clear
7:52 PM 34.0 °F 25.0 °F 19.9 °F 56% 30.29 in 10.0 mi WSW 12.7 mph - N/A   Clear
8:52 PM 34.0 °F 25.5 °F 19.9 °F 56% 30.28 in 10.0 mi West 11.5 mph 18.4 mph N/A   Clear
9:52 PM 33.1 °F 25.5 °F 19.9 °F 59% 30.27 in 10.0 mi West 9.2 mph - N/A   Clear
10:52 PM 33.1 °F 27.7 °F 21.0 °F 61% 30.29 in 10.0 mi West 5.8 mph - N/A   Clear
11:52 PM 33.1 °F 25.5 °F 21.0 °F 61% 30.31 in 10.0 mi West 9.2 mph - N/A   Clear